Location: Remedello Sotto
(45.2500°N, 10.3667°E)
Time: 11:59:51
(UTC+00:00)

Meteor 1-11 - Visible Passes

Search period start: 25 September 2023 00:00
Search period end: 05 October 2023 00:00
Orbit: 841 x 886 km, 81.2° (Epoch: 24 September)

Date Brightness Start Highest point End Pass type
(mag) Time Alt. Az. Time Alt. Az. Time Alt. Az.
25 Sep 6.6 20:11:49 10° NNE 20:12:16 11° NNE 20:12:16 11° NNE visible
25 Sep 6.6 21:53:02 10° N 21:54:32 19° N 21:54:32 19° N visible
26 Sep 6.6 20:03:35 10° NNE 20:04:01 11° NNE 20:04:01 11° NNE visible
26 Sep 6.6 21:44:46 10° N 21:46:17 19° N 21:46:17 19° N visible
27 Sep 6.6 19:55:21 10° NNE 19:55:46 11° NNE 19:55:46 11° NNE visible
27 Sep 6.5 21:36:30 10° N 21:38:02 19° N 21:38:02 19° N visible
28 Sep 6.6 19:47:06 10° NNE 19:47:32 11° NE 19:47:32 11° NE visible
28 Sep 6.5 21:28:14 10° N 21:29:48 19° N 21:29:48 19° N visible
29 Sep 6.5 19:38:53 10° NNE 19:39:17 11° NE 19:39:17 11° NE visible
29 Sep 6.5 21:19:57 10° N 21:21:34 20° N 21:21:34 20° N visible
30 Sep 6.5 19:30:38 10° NNE 19:31:05 11° NE 19:31:05 11° NE visible
30 Sep 6.4 21:11:41 10° N 21:13:21 20° N 21:13:21 20° N visible
01 Oct 6.5 19:22:24 10° NNE 19:22:52 11° NE 19:22:52 11° NE visible
01 Oct 6.4 21:03:25 10° N 21:05:09 20° N 21:05:09 20° N visible
02 Oct 6.5 19:14:11 10° NNE 19:14:41 11° NE 19:14:41 11° NE visible
02 Oct 6.3 20:55:09 10° N 20:56:57 21° N 20:56:57 21° N visible
03 Oct 6.4 19:05:57 10° NNE 19:06:30 11° NE 19:06:30 11° NE visible
03 Oct 6.3 20:46:52 10° N 20:48:46 22° N 20:48:46 22° N visible
04 Oct 6.4 18:57:43 10° NNE 18:58:19 11° NE 18:58:19 11° NE visible
04 Oct 6.2 20:38:36 10° N 20:40:36 22° N 20:40:36 22° N visible
